Time,TemperatureF,DewpointF,PressureIn,WindDirection,WindDirectionDegrees,WindSpeedMPH,WindSpeedGustMPH,Humidity,HourlyPrecipIn,Conditions,Clouds,dailyrainin,SoftwareType,DateUTC
2013-03-31 00:00:00,36.0,8.3,30.12,WNW,293,0.0,0.0,31,0.00,,---,0.00,VWS V14.01,2013-03-31 04:00:00,
2013-03-31 00:05:00,35.6,8.7,30.12,WNW,293,0.0,0.0,32,0.00,,---,0.00,VWS V14.01,2013-03-31 04:05:00,
2013-03-31 00:10:00,35.6,8.0,30.12,WNW,293,0.0,0.0,31,0.00,,---,0.00,VWS V14.01,2013-03-31 04:10:00,
2013-03-31 00:15:00,35.6,8.0,30.15,WNW,293,0.0,0.0,31,0.00,,---,0.00,VWS V14.01,2013-03-31 04:15:00,
2013-03-31 00:20:00,35.4,7.8,30.15,WNW,293,0.0,0.0,31,0.00,,---,0.00,VWS V14.01,2013-03-31 04:20:00,
2013-03-31 00:25:00,35.4,8.5,30.15,WNW,294,0.0,0.0,32,0.00,,---,0.00,VWS V14.01,2013-03-31 04:25:00,
2013-03-31 00:30:00,34.5,8.4,30.15,WNW,293,0.0,0.0,33,0.00,,---,0.00,VWS V14.01,2013-03-31 04:30:00,
2013-03-31 00:35:00,34.2,9.4,30.15,WNW,293,0.0,0.0,35,0.00,,---,0.00,VWS V14.01,2013-03-31 04:35:00,
2013-03-31 00:40:00,33.6,11.3,30.15,WNW,293,0.0,0.0,39,0.00,,---,0.00,VWS V14.01,2013-03-31 04:40:00,
2013-03-31 00:45:00,33.4,11.7,30.15,WNW,293,0.0,0.0,40,0.00,,---,0.00,VWS V14.01,2013-03-31 04:45:00,
2013-03-31 00:50:00,33.8,12.6,30.15,WNW,293,0.0,0.0,41,0.00,,---,0.00,VWS V14.01,2013-03-31 04:50:00,
2013-03-31 00:55:00,34.3,11.4,30.15,WNW,293,0.0,0.0,38,0.00,,---,0.00,VWS V14.01,2013-03-31 04:55:00,
2013-03-31 01:00:00,34.3,10.8,30.15,WNW,293,0.0,0.0,37,0.00,,---,0.00,VWS V14.01,2013-03-31 05:00:00,
2013-03-31 01:05:00,34.5,10.9,30.15,WNW,293,0.0,0.0,37,0.00,,---,0.00,VWS V14.01,2013-03-31 05:05:00,
2013-03-31 01:10:00,34.3,10.8,30.15,WNW,293,0.0,0.0,37,0.00,,---,0.00,VWS V14.01,2013-03-31 05:10:00,
2013-03-31 01:15:00,34.0,11.1,30.15,WNW,294,0.0,0.0,38,0.00,,---,0.00,VWS V14.01,2013-03-31 05:15:00,
2013-03-31 01:20:00,33.8,12.1,30.15,WNW,293,0.0,0.0,40,0.00,,---,0.00,VWS V14.01,2013-03-31 05:20:00,
2013-03-31 01:25:00,33.8,12.1,30.15,WNW,293,0.0,0.0,40,0.00,,---,0.00,VWS V14.01,2013-03-31 05:25:00,
2013-03-31 01:30:00,33.8,12.1,30.15,WNW,293,0.0,0.0,40,0.00,,---,0.00,VWS V14.01,2013-03-31 05:30:00,
2013-03-31 01:35:00,33.3,11.6,30.15,WNW,293,0.0,0.0,40,0.00,,---,0.00,VWS V14.01,2013-03-31 05:35:00,
2013-03-31 01:40:00,33.4,11.7,30.15,WNW,293,0.0,0.0,40,0.00,,---,0.00,VWS V14.01,2013-03-31 05:40:00,
2013-03-31 01:45:00,32.9,11.8,30.12,WNW,293,0.0,0.0,41,0.00,,---,0.00,VWS V14.01,2013-03-31 05:45:00,
2013-03-31 01:50:00,32.2,11.7,30.12,WNW,293,0.0,0.0,42,0.00,,---,0.00,VWS V14.01,2013-03-31 05:50:00,
2013-03-31 01:55:00,31.6,11.7,30.12,WNW,293,0.0,0.0,43,0.00,,---,0.00,VWS V14.01,2013-03-31 05:55:00,
2013-03-31 02:00:00,32.4,13.4,30.12,WNW,293,0.0,0.0,45,0.00,,---,0.00,VWS V14.01,2013-03-31 06:00:00,
2013-03-31 02:05:00,32.7,12.7,30.12,WNW,293,0.0,0.0,43,0.00,,---,0.00,VWS V14.01,2013-03-31 06:05:00,
2013-03-31 02:10:00,32.7,12.2,30.12,WNW,293,0.0,0.0,42,0.00,,---,0.00,VWS V14.01,2013-03-31 06:10:00,
2013-03-31 02:15:00,32.2,11.7,30.12,WNW,293,0.0,0.0,42,0.00,,---,0.00,VWS V14.01,2013-03-31 06:15:00,
2013-03-31 02:20:00,31.8,11.9,30.12,WNW,293,0.0,0.0,43,0.00,,---,0.00,VWS V14.01,2013-03-31 06:20:00,
2013-03-31 02:25:00,31.3,11.9,30.12,WNW,294,0.0,0.0,44,0.00,,---,0.00,VWS V14.01,2013-03-31 06:25:00,
2013-03-31 02:30:00,31.6,12.8,30.12,WNW,293,0.0,0.0,45,0.00,,---,0.00,VWS V14.01,2013-03-31 06:30:00,
2013-03-31 02:35:00,31.6,13.2,30.12,WNW,293,0.0,0.0,46,0.00,,---,0.00,VWS V14.01,2013-03-31 06:35:00,
2013-03-31 02:40:00,32.2,13.7,30.12,WNW,293,0.0,0.0,46,0.00,,---,0.00,VWS V14.01,2013-03-31 06:40:00,
2013-03-31 02:45:00,31.8,12.9,30.12,WNW,294,0.0,0.0,45,0.00,,---,0.00,VWS V14.01,2013-03-31 06:45:00,
2013-03-31 02:50:00,31.5,12.6,30.12,WNW,293,0.0,0.0,45,0.00,,---,0.00,VWS V14.01,2013-03-31 06:50:00,
2013-03-31 02:55:00,31.3,12.9,30.12,WNW,293,0.0,0.0,46,0.00,,---,0.00,VWS V14.01,2013-03-31 06:55:00,
2013-03-31 03:00:00,30.9,12.6,30.12,WNW,293,0.0,0.0,46,0.00,,---,0.00,VWS V14.01,2013-03-31 07:00:00,
2013-03-31 03:05:00,30.7,12.4,30.12,WNW,293,0.0,0.0,46,0.00,,---,0.00,VWS V14.01,2013-03-31 07:05:00,
2013-03-31 03:10:00,30.6,12.7,30.12,WNW,293,0.0,0.0,47,0.00,,---,0.00,VWS V14.01,2013-03-31 07:10:00,
2013-03-31 03:15:00,30.4,12.6,30.12,WNW,294,0.0,0.0,47,0.00,,---,0.00,VWS V14.01,2013-03-31 07:15:00,
2013-03-31 03:20:00,30.4,13.5,30.12,WNW,293,0.0,0.0,49,0.00,,---,0.00,VWS V14.01,2013-03-31 07:20:00,
2013-03-31 03:25:00,29.8,13.0,30.12,WNW,294,0.0,0.0,49,0.00,,---,0.00,VWS V14.01,2013-03-31 07:25:00,
2013-03-31 03:30:00,29.7,13.3,30.12,WNW,293,0.0,0.0,50,0.00,,---,0.00,VWS V14.01,2013-03-31 07:30:00,
2013-03-31 03:35:00,29.3,13.0,30.12,WNW,293,0.0,0.0,50,0.00,,---,0.00,VWS V14.01,2013-03-31 07:35:00,
2013-03-31 03:40:00,29.1,13.3,30.12,WNW,293,0.0,0.0,51,0.00,,---,0.00,VWS V14.01,2013-03-31 07:40:00,
2013-03-31 03:45:00,29.1,14.1,30.12,NE,42,0.0,0.0,53,0.00,,---,0.00,VWS V14.01,2013-03-31 07:45:00,
2013-03-31 03:50:00,29.5,14.9,30.12,NE,42,0.0,0.0,54,0.00,,---,0.00,VWS V14.01,2013-03-31 07:50:00,
2013-03-31 03:55:00,29.7,15.1,30.12,NE,42,0.0,0.0,54,0.00,,---,0.00,VWS V14.01,2013-03-31 07:55:00,
2013-03-31 04:00:00,29.7,15.1,30.12,NE,42,0.0,0.0,54,0.00,,---,0.00,VWS V14.01,2013-03-31 08:00:00,
2013-03-31 04:05:00,29.5,14.9,30.12,NE,42,0.0,0.0,54,0.00,,---,0.00,VWS V14.01,2013-03-31 08:05:00,
2013-03-31 04:10:00,29.3,14.7,30.12,NE,42,0.0,0.0,54,0.00,,---,0.00,VWS V14.01,2013-03-31 08:10:00,
2013-03-31 04:15:00,29.1,15.0,30.12,NE,42,0.0,0.0,55,0.00,,---,0.00,VWS V14.01,2013-03-31 08:15:00,
2013-03-31 04:20:00,28.9,14.8,30.12,NE,42,0.0,0.0,55,0.00,,---,0.00,VWS V14.01,2013-03-31 08:20:00,
2013-03-31 04:25:00,28.8,14.6,30.12,NE,42,0.0,0.0,55,0.00,,---,0.00,VWS V14.01,2013-03-31 08:25:00,
2013-03-31 04:30:00,28.9,15.2,30.12,NE,42,0.0,0.0,56,0.00,,---,0.00,VWS V14.01,2013-03-31 08:30:00,
2013-03-31 04:35:00,29.3,15.6,30.12,NE,42,0.0,0.0,56,0.00,,---,0.00,VWS V14.01,2013-03-31 08:35:00,
2013-03-31 04:40:00,29.1,15.4,30.12,NE,42,0.0,0.0,56,0.00,,---,0.00,VWS V14.01,2013-03-31 08:40:00,
2013-03-31 04:45:00,29.1,15.4,30.12,NE,42,0.0,0.0,56,0.00,,---,0.00,VWS V14.01,2013-03-31 08:45:00,
2013-03-31 04:50:00,28.9,15.2,30.12,NE,42,0.0,0.0,56,0.00,,---,0.00,VWS V14.01,2013-03-31 08:50:00,
2013-03-31 04:55:00,28.8,15.1,30.12,NE,42,0.0,0.0,56,0.00,,---,0.00,VWS V14.01,2013-03-31 08:55:00,
2013-03-31 05:00:00,28.8,15.5,30.12,NE,42,0.0,0.0,57,0.00,,---,0.00,VWS V14.01,2013-03-31 09:00:00,
2013-03-31 05:05:00,28.8,15.5,30.12,NE,42,0.0,0.0,57,0.00,,---,0.00,VWS V14.01,2013-03-31 09:05:00,
2013-03-31 05:10:00,29.1,16.2,30.12,NE,42,0.0,0.0,58,0.00,,---,0.00,VWS V14.01,2013-03-31 09:10:00,
2013-03-31 05:15:00,28.9,15.6,30.12,NE,42,0.0,0.0,57,0.00,,---,0.00,VWS V14.01,2013-03-31 09:15:00,
2013-03-31 05:19:00,29.1,15.8,30.12,NE,42,0.0,0.0,57,0.00,,---,0.00,VWS V14.01,2013-03-31 09:19:00,
2013-03-31 05:24:00,29.1,15.4,30.12,NE,42,0.0,0.0,56,0.00,,---,0.00,VWS V14.01,2013-03-31 09:24:00,
2013-03-31 05:29:00,29.1,15.0,30.12,NE,42,0.0,0.0,55,0.00,,---,0.00,VWS V14.01,2013-03-31 09:29:00,
2013-03-31 05:34:00,28.8,14.6,30.12,NE,42,0.0,0.0,55,0.00,,---,0.00,VWS V14.01,2013-03-31 09:34:00,
2013-03-31 05:39:00,28.8,15.1,30.12,NE,42,0.0,0.0,56,0.00,,---,0.00,VWS V14.01,2013-03-31 09:39:00,
2013-03-31 05:44:00,28.6,14.9,30.12,NE,42,0.0,0.0,56,0.00,,---,0.00,VWS V14.01,2013-03-31 09:44:00,
2013-03-31 05:49:00,28.4,15.1,30.12,NE,42,0.0,0.0,57,0.00,,---,0.00,VWS V14.01,2013-03-31 09:49:00,
2013-03-31 05:54:00,28.2,15.0,30.12,NE,42,0.0,0.0,57,0.00,,---,0.00,VWS V14.01,2013-03-31 09:54:00,
2013-03-31 05:59:00,28.6,16.1,30.12,NE,42,0.0,0.0,59,0.00,,---,0.00,VWS V14.01,2013-03-31 09:59:00,
2013-03-31 06:04:00,28.6,16.1,30.12,NE,42,0.0,0.0,59,0.00,,---,0.00,VWS V14.01,2013-03-31 10:04:00,
2013-03-31 06:09:00,28.4,15.5,30.12,NE,42,0.0,0.0,58,0.00,,---,0.00,VWS V14.01,2013-03-31 10:09:00,
2013-03-31 06:14:00,28.2,15.4,30.12,NE,42,0.0,0.0,58,0.00,,---,0.00,VWS V14.01,2013-03-31 10:14:00,
2013-03-31 06:19:00,28.6,15.7,30.12,NE,42,0.0,0.0,58,0.00,,---,0.00,VWS V14.01,2013-03-31 10:19:00,
2013-03-31 06:24:00,29.1,15.8,30.12,NE,42,0.0,0.0,57,0.00,,---,0.00,VWS V14.01,2013-03-31 10:24:00,
2013-03-31 06:29:00,29.1,14.1,30.12,NE,42,0.0,0.0,53,0.00,,---,0.00,VWS V14.01,2013-03-31 10:29:00,
2013-03-31 06:34:00,28.8,13.4,30.12,NE,42,0.0,0.0,52,0.00,,---,0.00,VWS V14.01,2013-03-31 10:34:00,
2013-03-31 06:39:00,28.6,13.6,30.12,NE,42,0.0,0.0,53,0.00,,---,0.00,VWS V14.01,2013-03-31 10:39:00,
2013-03-31 06:44:00,28.6,13.6,30.12,NE,42,0.0,0.0,53,0.00,,---,0.00,VWS V14.01,2013-03-31 10:44:00,
2013-03-31 06:49:00,28.6,13.6,30.12,NE,42,0.0,0.0,53,0.00,,---,0.00,VWS V14.01,2013-03-31 10:49:00,
2013-03-31 06:54:00,29.3,13.0,30.12,NE,42,0.0,0.0,50,0.00,,---,0.00,VWS V14.01,2013-03-31 10:54:00,
2013-03-31 06:59:00,29.8,12.1,30.12,NE,42,0.0,0.0,47,0.00,,---,0.00,VWS V14.01,2013-03-31 10:59:00,
2013-03-31 07:04:00,29.7,11.9,30.12,NE,42,0.0,0.0,47,0.00,,---,0.00,VWS V14.01,2013-03-31 11:04:00,
2013-03-31 07:09:00,29.8,11.6,30.12,NE,42,0.0,0.0,46,0.00,,---,0.00,VWS V14.01,2013-03-31 11:09:00,
2013-03-31 07:14:00,29.8,11.6,30.12,NE,42,0.0,0.0,46,0.00,,---,0.00,VWS V14.01,2013-03-31 11:14:00,
2013-03-31 07:19:00,29.8,11.6,30.12,NE,42,0.0,0.0,46,0.00,,---,0.00,VWS V14.01,2013-03-31 11:19:00,
2013-03-31 07:24:00,30.0,12.2,30.12,NE,42,0.0,0.0,47,0.00,,---,0.00,VWS V14.01,2013-03-31 11:24:00,
2013-03-31 07:29:00,30.2,12.4,30.12,NE,42,0.0,0.0,47,0.00,,---,0.00,VWS V14.01,2013-03-31 11:29:00,
2013-03-31 07:34:00,30.2,12.4,30.12,NE,42,0.0,0.0,47,0.00,,---,0.00,VWS V14.01,2013-03-31 11:34:00,
2013-03-31 07:39:00,30.6,12.7,30.12,NE,42,0.0,0.0,47,0.00,,---,0.00,VWS V14.01,2013-03-31 11:39:00,
2013-03-31 07:44:00,31.1,13.2,30.12,NE,42,0.0,0.0,47,0.00,,---,0.00,VWS V14.01,2013-03-31 11:44:00,
2013-03-31 07:49:00,31.8,14.4,30.12,NE,42,0.0,0.0,48,0.00,,---,0.00,VWS V14.01,2013-03-31 11:49:00,
2013-03-31 07:54:00,32.5,14.6,30.12,NE,43,0.0,0.0,47,0.00,,---,0.00,VWS V14.01,2013-03-31 11:54:00,
2013-03-31 07:59:00,33.3,15.7,30.12,NE,42,0.0,0.0,48,0.00,,---,0.00,VWS V14.01,2013-03-31 11:59:00,
2013-03-31 08:04:00,34.0,15.9,30.12,NE,43,0.0,0.0,47,0.00,,---,0.00,VWS V14.01,2013-03-31 12:04:00,
2013-03-31 08:09:00,34.5,15.4,30.12,NE,42,0.0,0.0,45,0.00,,---,0.00,VWS V14.01,2013-03-31 12:09:00,
2013-03-31 08:14:00,34.9,14.7,30.12,NE,42,0.0,0.0,43,0.00,,---,0.00,VWS V14.01,2013-03-31 12:14:00,
2013-03-31 08:19:00,35.4,14.1,30.12,NE,42,0.0,0.0,41,0.00,,---,0.00,VWS V14.01,2013-03-31 12:19:00,
2013-03-31 08:24:00,36.1,13.6,30.12,NE,42,0.0,0.0,39,0.00,,---,0.00,VWS V14.01,2013-03-31 12:24:00,
2013-03-31 08:29:00,36.7,13.5,30.12,NE,43,0.0,0.0,38,0.00,,---,0.00,VWS V14.01,2013-03-31 12:29:00,
2013-03-31 08:34:00,37.8,15.6,30.12,NE,42,0.0,0.0,40,0.00,,---,0.00,VWS V14.01,2013-03-31 12:34:00,
2013-03-31 08:39:00,38.7,17.6,30.12,NE,42,0.0,0.0,42,0.00,,---,0.00,VWS V14.01,2013-03-31 12:39:00,
2013-03-31 08:44:00,39.0,17.3,30.12,NE,42,0.0,0.0,41,0.00,,---,0.00,VWS V14.01,2013-03-31 12:44:00,
2013-03-31 08:49:00,39.7,17.4,30.12,NE,42,0.0,0.0,40,0.00,,---,0.00,VWS V14.01,2013-03-31 12:49:00,
2013-03-31 08:54:00,40.3,17.9,30.12,NE,43,0.0,0.0,40,0.00,,---,0.00,VWS V14.01,2013-03-31 12:54:00,
2013-03-31 08:59:00,40.6,17.0,30.12,NE,43,0.0,0.0,38,0.00,,---,0.00,VWS V14.01,2013-03-31 12:59:00,
2013-03-31 09:04:00,41.5,18.4,30.12,South,172,0.0,0.0,39,0.00,,---,0.00,VWS V14.01,2013-03-31 13:04:00,
2013-03-31 09:09:00,42.3,17.9,30.12,South,180,0.0,0.0,37,0.00,,---,0.00,VWS V14.01,2013-03-31 13:09:00,
2013-03-31 09:14:00,43.0,17.2,30.12,South,180,0.0,0.0,35,0.00,,---,0.00,VWS V14.01,2013-03-31 13:14:00,
2013-03-31 09:19:00,43.5,14.2,30.12,South,172,0.0,0.0,30,0.00,,---,0.00,VWS V14.01,2013-03-31 13:19:00,
2013-03-31 09:24:00,44.4,14.9,30.12,South,173,0.0,0.0,30,0.00,,---,0.00,VWS V14.01,2013-03-31 13:24:00,
2013-03-31 09:29:00,44.8,14.5,30.12,SW,231,0.0,0.0,29,0.00,,---,0.00,VWS V14.01,2013-03-31 13:29:00,
2013-03-31 09:34:00,45.7,14.5,30.12,South,188,0.0,0.0,28,0.00,,---,0.00,VWS V14.01,2013-03-31 13:34:00,
2013-03-31 09:39:00,46.4,14.2,30.12,SW,219,0.0,0.0,27,0.00,,---,0.00,VWS V14.01,2013-03-31 13:39:00,
2013-03-31 09:44:00,47.1,14.9,30.12,South,190,0.0,0.0,27,0.00,,---,0.00,VWS V14.01,2013-03-31 13:44:00,
2013-03-31 09:49:00,47.7,15.3,30.12,SW,229,0.0,0.0,27,0.00,,---,0.00,VWS V14.01,2013-03-31 13:49:00,
2013-03-31 09:54:00,48.2,15.8,30.12,WSW,239,0.0,0.0,27,0.00,,---,0.00,VWS V14.01,2013-03-31 13:54:00,
2013-03-31 09:59:00,48.7,16.3,30.12,South,179,0.0,0.0,27,0.00,,---,0.00,VWS V14.01,2013-03-31 13:59:00,
2013-03-31 10:04:00,48.9,16.4,30.12,SW,231,0.0,0.0,27,0.00,,---,0.00,VWS V14.01,2013-03-31 14:04:00,
2013-03-31 10:09:00,49.1,15.7,30.12,SSW,201,0.0,0.0,26,0.00,,---,0.00,VWS V14.01,2013-03-31 14:09:00,
2013-03-31 10:14:00,49.5,16.9,30.12,SSE,164,0.0,0.0,27,0.00,,---,0.00,VWS V14.01,2013-03-31 14:14:00,
2013-03-31 10:19:00,49.6,16.2,30.12,West,265,0.0,0.0,26,0.00,,---,0.00,VWS V14.01,2013-03-31 14:19:00,
2013-03-31 10:24:00,50.2,14.8,30.12,SW,236,0.0,0.0,24,0.00,,---,0.00,VWS V14.01,2013-03-31 14:24:00,
2013-03-31 10:29:00,50.5,15.1,30.12,SSW,208,0.0,0.0,24,0.00,,---,0.00,VWS V14.01,2013-03-31 14:29:00,
2013-03-31 10:34:00,51.1,12.5,30.12,SW,234,0.0,0.0,21,0.00,,---,0.00,VWS V14.01,2013-03-31 14:34:00,
2013-03-31 10:39:00,51.8,13.1,30.12,SSW,212,0.0,0.0,21,0.00,,---,0.00,VWS V14.01,2013-03-31 14:39:00,
2013-03-31 10:44:00,52.3,10.1,30.12,WSW,244,0.0,0.0,18,0.00,,---,0.00,VWS V14.01,2013-03-31 14:44:00,
2013-03-31 10:49:00,52.7,10.4,30.12,WSW,245,0.0,0.0,18,0.00,,---,0.00,VWS V14.01,2013-03-31 14:49:00,
2013-03-31 10:54:00,53.1,10.7,30.12,WSW,239,0.0,0.0,18,0.00,,---,0.00,VWS V14.01,2013-03-31 14:54:00,
2013-03-31 10:59:00,53.8,11.3,30.12,SW,228,0.0,0.0,18,0.00,,---,0.00,VWS V14.01,2013-03-31 14:59:00,
2013-03-31 11:04:00,54.0,7.4,30.12,South,191,0.0,0.0,15,0.00,,---,0.00,VWS V14.01,2013-03-31 15:04:00,
2013-03-31 11:09:00,54.5,7.8,30.12,WNW,284,0.0,0.0,15,0.00,,---,0.00,VWS V14.01,2013-03-31 15:09:00,
2013-03-31 11:14:00,54.9,8.1,30.12,SSW,197,0.0,0.0,15,0.00,,---,0.00,VWS V14.01,2013-03-31 15:14:00,
2013-03-31 11:19:00,55.4,8.5,30.12,WSW,237,0.0,0.0,15,0.00,,---,0.00,VWS V14.01,2013-03-31 15:19:00,
2013-03-31 11:24:00,55.9,9.0,30.12,WSW,245,0.0,0.0,15,0.00,,---,0.00,VWS V14.01,2013-03-31 15:24:00,
2013-03-31 11:29:00,55.9,4.1,30.12,NNW,337,0.0,0.0,12,0.00,,---,0.00,VWS V14.01,2013-03-31 15:29:00,
2013-03-31 11:34:00,55.8,3.9,30.12,West,281,0.0,0.0,12,0.00,,---,0.00,VWS V14.01,2013-03-31 15:34:00,
2013-03-31 11:39:00,55.8,3.9,30.12,SW,228,0.0,0.0,12,0.00,,---,0.00,VWS V14.01,2013-03-31 15:39:00,
2013-03-31 11:44:00,56.3,4.4,30.12,WSW,247,0.0,0.0,12,0.00,,---,0.00,VWS V14.01,2013-03-31 15:44:00,
2013-03-31 11:49:00,56.1,4.2,30.12,SSW,212,0.0,0.0,12,0.00,,---,0.00,VWS V14.01,2013-03-31 15:49:00,
2013-03-31 11:54:00,56.3,4.4,30.12,WSW,246,3.1,3.1,12,0.00,,---,0.00,VWS V14.01,2013-03-31 15:54:00,
2013-03-31 11:59:00,56.3,4.4,30.09,SSE,163,0.0,0.0,12,0.00,,---,0.00,VWS V14.01,2013-03-31 15:59:00,
2013-03-31 12:04:00,56.3,4.4,30.09,WSW,246,0.0,0.0,12,0.00,,---,0.00,VWS V14.01,2013-03-31 16:04:00,
2013-03-31 12:09:00,56.5,7.9,30.09,SW,229,0.0,0.0,14,0.00,,---,0.00,VWS V14.01,2013-03-31 16:09:00,
2013-03-31 12:14:00,56.7,8.0,30.09,WSW,238,0.0,0.0,14,0.00,,---,0.00,VWS V14.01,2013-03-31 16:14:00,
2013-03-31 12:19:00,56.5,7.9,30.09,WSW,242,0.0,0.0,14,0.00,,---,0.00,VWS V14.01,2013-03-31 16:19:00,
2013-03-31 12:24:00,56.7,8.0,30.09,West,278,0.0,0.0,14,0.00,,---,0.00,VWS V14.01,2013-03-31 16:24:00,
2013-03-31 12:29:00,56.3,7.7,30.09,WSW,243,0.0,0.0,14,0.00,,---,0.00,VWS V14.01,2013-03-31 16:29:00,
2013-03-31 12:34:00,56.5,7.9,30.09,WSW,246,0.0,0.0,14,0.00,,---,0.00,VWS V14.01,2013-03-31 16:34:00,
2013-03-31 12:39:00,56.5,4.5,30.09,SSW,212,0.0,5.8,12,0.00,,---,0.00,VWS V14.01,2013-03-31 16:39:00,
2013-03-31 12:44:00,56.3,4.4,30.09,South,181,0.0,0.0,12,0.00,,---,0.00,VWS V14.01,2013-03-31 16:44:00,
2013-03-31 12:49:00,56.5,4.5,30.09,SSW,204,0.0,0.0,12,0.00,,---,0.00,VWS V14.01,2013-03-31 16:49:00,
2013-03-31 12:54:00,56.3,4.4,30.09,South,174,0.0,0.0,12,0.00,,---,0.00,VWS V14.01,2013-03-31 16:54:00,
2013-03-31 12:59:00,56.1,4.2,30.09,NW,326,0.0,0.0,12,0.00,,---,0.00,VWS V14.01,2013-03-31 16:59:00,
2013-03-31 13:04:00,56.3,4.4,30.09,West,262,0.0,0.0,12,0.00,,---,0.00,VWS V14.01,2013-03-31 17:04:00,
2013-03-31 13:09:00,56.5,4.5,30.09,WSW,242,0.0,0.0,12,0.00,,---,0.00,VWS V14.01,2013-03-31 17:09:00,
2013-03-31 13:14:00,56.7,4.6,30.09,West,265,0.0,0.0,12,0.00,,---,0.00,VWS V14.01,2013-03-31 17:14:00,
2013-03-31 13:19:00,56.7,4.6,30.09,WNW,295,0.0,0.0,12,0.00,,---,0.00,VWS V14.01,2013-03-31 17:19:00,
2013-03-31 13:25:00,56.3,4.4,30.09,WSW,246,0.0,0.0,12,0.00,,---,0.00,VWS V14.01,2013-03-31 17:25:00,
2013-03-31 13:29:00,56.5,4.5,30.06,SW,229,0.0,0.0,12,0.00,,---,0.00,VWS V14.01,2013-03-31 17:29:00,
2013-03-31 13:35:00,56.1,4.2,30.06,West,272,0.0,0.0,12,0.00,,---,0.00,VWS V14.01,2013-03-31 17:35:00,
2013-03-31 13:39:00,55.9,4.1,30.06,WSW,241,0.0,0.0,12,0.00,,---,0.00,VWS V14.01,2013-03-31 17:39:00,
2013-03-31 13:44:00,55.9,4.1,30.06,SW,236,0.0,0.0,12,0.00,,---,0.00,VWS V14.01,2013-03-31 17:44:00,
2013-03-31 13:50:00,56.3,4.4,30.06,West,268,0.0,0.0,12,0.00,,---,0.00,VWS V14.01,2013-03-31 17:50:00,
2013-03-31 13:55:00,56.7,4.6,30.06,ESE,113,0.0,0.0,12,0.00,,---,0.00,VWS V14.01,2013-03-31 17:55:00,
2013-03-31 13:59:00,56.8,4.8,30.06,SSW,209,0.0,0.0,12,0.00,,---,0.00,VWS V14.01,2013-03-31 17:59:00,
2013-03-31 14:04:00,56.7,4.6,30.06,WNW,285,0.0,0.0,12,0.00,,---,0.00,VWS V14.01,2013-03-31 18:04:00,
2013-03-31 14:09:00,56.7,4.6,30.06,SW,234,0.0,0.0,12,0.00,,---,0.00,VWS V14.01,2013-03-31 18:09:00,
2013-03-31 14:14:00,56.8,4.8,30.06,West,275,0.0,0.0,12,0.00,,---,0.00,VWS V14.01,2013-03-31 18:14:00,
2013-03-31 14:19:00,56.7,4.6,30.06,West,268,0.0,7.8,12,0.00,,---,0.00,VWS V14.01,2013-03-31 18:19:00,
2013-03-31 14:24:00,55.8,3.9,30.06,WSW,257,0.0,0.0,12,0.00,,---,0.00,VWS V14.01,2013-03-31 18:24:00,
2013-03-31 14:29:00,55.8,3.9,30.03,West,278,0.0,0.0,12,0.00,,---,0.00,VWS V14.01,2013-03-31 18:29:00,
2013-03-31 14:34:00,55.8,3.9,30.03,SW,234,0.0,0.0,12,0.00,,---,0.00,VWS V14.01,2013-03-31 18:34:00,
2013-03-31 14:39:00,56.1,4.2,30.03,WSW,245,0.0,0.0,12,0.00,,---,0.00,VWS V14.01,2013-03-31 18:39:00,
2013-03-31 14:44:00,56.3,4.4,30.03,SW,233,0.0,0.0,12,0.00,,---,0.00,VWS V14.01,2013-03-31 18:44:00,
2013-03-31 14:49:00,56.1,4.2,30.03,WSW,240,0.0,0.0,12,0.00,,---,0.00,VWS V14.01,2013-03-31 18:49:00,
2013-03-31 14:54:00,55.9,4.1,30.03,SW,235,0.0,0.0,12,0.00,,---,0.00,VWS V14.01,2013-03-31 18:54:00,
2013-03-31 14:59:00,55.9,4.1,30.03,WSW,245,0.0,0.0,12,0.00,,---,0.00,VWS V14.01,2013-03-31 18:59:00,
2013-03-31 15:04:00,55.9,4.1,30.03,WSW,243,0.0,0.0,12,0.00,,---,0.00,VWS V14.01,2013-03-31 19:04:00,
2013-03-31 15:09:00,55.4,8.5,30.03,SW,232,0.0,0.0,15,0.00,,---,0.00,VWS V14.01,2013-03-31 19:09:00,
2013-03-31 15:14:00,55.4,8.5,30.03,West,275,0.0,0.0,15,0.00,,---,0.00,VWS V14.01,2013-03-31 19:14:00,
2013-03-31 15:19:00,55.2,8.4,30.03,South,188,0.0,0.0,15,0.00,,---,0.00,VWS V14.01,2013-03-31 19:19:00,
2013-03-31 15:24:00,54.9,8.1,30.03,South,171,0.0,0.0,15,0.00,,---,0.00,VWS V14.01,2013-03-31 19:24:00,
2013-03-31 15:29:00,54.3,7.7,30.03,SSW,208,0.0,0.0,15,0.00,,---,0.00,VWS V14.01,2013-03-31 19:29:00,
2013-03-31 15:34:00,54.3,7.7,30.03,SSE,155,0.0,0.0,15,0.00,,---,0.00,VWS V14.01,2013-03-31 19:34:00,
2013-03-31 15:40:00,53.8,7.2,30.03,SW,215,0.0,0.0,15,0.00,,---,0.00,VWS V14.01,2013-03-31 19:40:00,
2013-03-31 15:45:00,53.6,7.1,30.00,SSE,165,0.0,0.0,15,0.00,,---,0.00,VWS V14.01,2013-03-31 19:45:00,
2013-03-31 15:50:00,53.2,6.8,30.00,SW,229,0.0,0.0,15,0.00,,---,0.00,VWS V14.01,2013-03-31 19:50:00,
2013-03-31 15:55:00,53.1,6.7,30.00,SSW,210,0.0,0.0,15,0.00,,---,0.00,VWS V14.01,2013-03-31 19:55:00,
2013-03-31 16:00:00,53.1,6.7,30.00,South,170,0.0,0.0,15,0.00,,---,0.00,VWS V14.01,2013-03-31 20:00:00,
2013-03-31 16:05:00,52.9,10.6,30.00,SW,224,0.0,0.0,18,0.00,,---,0.00,VWS V14.01,2013-03-31 20:05:00,
2013-03-31 16:10:00,52.7,10.4,30.00,South,187,0.0,0.0,18,0.00,,---,0.00,VWS V14.01,2013-03-31 20:10:00,
2013-03-31 16:15:00,52.3,10.1,30.00,SW,226,0.0,0.0,18,0.00,,---,0.00,VWS V14.01,2013-03-31 20:15:00,
2013-03-31 16:20:00,52.0,9.8,30.00,SSW,210,0.0,0.0,18,0.00,,---,0.00,VWS V14.01,2013-03-31 20:20:00,
2013-03-31 16:25:00,51.8,9.7,30.00,WSW,248,0.0,0.0,18,0.00,,---,0.00,VWS V14.01,2013-03-31 20:25:00,
2013-03-31 16:30:00,51.6,9.5,30.00,WSW,247,0.0,0.0,18,0.00,,---,0.00,VWS V14.01,2013-03-31 20:30:00,
2013-03-31 16:35:00,51.1,12.5,30.00,SW,217,0.0,0.0,21,0.00,,---,0.00,VWS V14.01,2013-03-31 20:35:00,
2013-03-31 16:40:00,51.1,12.5,30.00,SW,229,0.0,0.0,21,0.00,,---,0.00,VWS V14.01,2013-03-31 20:40:00,
2013-03-31 16:44:00,50.9,14.4,30.00,SW,215,0.0,0.0,23,0.00,,---,0.00,VWS V14.01,2013-03-31 20:44:00,
2013-03-31 16:50:00,50.9,17.2,30.00,SW,227,0.0,0.0,26,0.00,,---,0.00,VWS V14.01,2013-03-31 20:50:00,
2013-03-31 16:54:00,50.7,17.1,30.00,SW,224,0.0,0.0,26,0.00,,---,0.00,VWS V14.01,2013-03-31 20:54:00,
2013-03-31 16:59:00,50.5,17.8,30.00,SW,230,0.0,0.0,27,0.00,,---,0.00,VWS V14.01,2013-03-31 20:59:00,
2013-03-31 17:04:00,50.4,17.7,30.00,SW,222,0.0,0.0,27,0.00,,---,0.00,VWS V14.01,2013-03-31 21:04:00,
2013-03-31 17:09:00,50.2,17.5,30.00,SW,226,0.0,0.0,27,0.00,,---,0.00,VWS V14.01,2013-03-31 21:09:00,
2013-03-31 17:14:00,50.0,17.4,29.97,SSW,204,0.0,0.0,27,0.00,,---,0.00,VWS V14.01,2013-03-31 21:14:00,
2013-03-31 17:19:00,49.8,18.0,29.97,SSE,164,0.0,0.0,28,0.00,,---,0.00,VWS V14.01,2013-03-31 21:19:00,
2013-03-31 17:24:00,49.6,18.7,29.97,South,171,0.0,0.0,29,0.00,,---,0.00,VWS V14.01,2013-03-31 21:24:00,
2013-03-31 17:29:00,49.5,18.5,29.97,SSW,194,0.0,0.0,29,0.00,,---,0.00,VWS V14.01,2013-03-31 21:29:00,
2013-03-31 17:34:00,49.5,19.3,29.97,South,177,0.0,0.0,30,0.00,,---,0.00,VWS V14.01,2013-03-31 21:34:00,
2013-03-31 17:39:00,49.1,19.0,29.97,SSW,211,0.0,0.0,30,0.00,,---,0.00,VWS V14.01,2013-03-31 21:39:00,
2013-03-31 17:44:00,49.1,19.0,29.97,SW,233,0.0,0.0,30,0.00,,---,0.00,VWS V14.01,2013-03-31 21:44:00,
2013-03-31 17:49:00,49.1,19.0,29.97,SSW,210,0.0,0.0,30,0.00,,---,0.00,VWS V14.01,2013-03-31 21:49:00,
2013-03-31 17:55:00,49.3,19.2,29.97,SSW,211,0.0,0.0,30,0.00,,---,0.00,VWS V14.01,2013-03-31 21:55:00,
2013-03-31 17:59:00,49.3,19.2,29.97,SSE,148,0.0,0.0,30,0.00,,---,0.00,VWS V14.01,2013-03-31 21:59:00,
2013-03-31 18:04:00,48.9,19.6,29.97,SSE,163,0.0,0.0,31,0.00,,---,0.00,VWS V14.01,2013-03-31 22:04:00,
2013-03-31 18:09:00,48.9,19.6,29.97,SSW,197,0.0,0.0,31,0.00,,---,0.00,VWS V14.01,2013-03-31 22:09:00,
2013-03-31 18:14:00,48.7,19.5,29.97,SW,233,0.0,0.0,31,0.00,,---,0.00,VWS V14.01,2013-03-31 22:14:00,
2013-03-31 18:19:00,48.7,19.5,29.97,South,178,0.0,0.0,31,0.00,,---,0.00,VWS V14.01,2013-03-31 22:19:00,
2013-03-31 18:24:00,48.6,20.1,29.97,SSE,166,0.0,0.0,32,0.00,,---,0.00,VWS V14.01,2013-03-31 22:24:00,
2013-03-31 18:29:00,48.6,20.1,29.94,South,176,0.0,0.0,32,0.00,,---,0.00,VWS V14.01,2013-03-31 22:29:00,
2013-03-31 18:34:00,48.4,19.9,29.94,SSW,196,0.0,0.0,32,0.00,,---,0.00,VWS V14.01,2013-03-31 22:34:00,
2013-03-31 18:39:00,48.2,20.5,29.94,SSW,210,0.0,0.0,33,0.00,,---,0.00,VWS V14.01,2013-03-31 22:39:00,
2013-03-31 18:44:00,48.2,21.2,29.94,SSE,166,0.0,0.0,34,0.00,,---,0.00,VWS V14.01,2013-03-31 22:44:00,
2013-03-31 18:49:00,48.2,21.2,29.94,SE,136,0.0,0.0,34,0.00,,---,0.00,VWS V14.01,2013-03-31 22:49:00,
2013-03-31 18:54:00,48.0,21.7,29.94,SSW,212,0.0,0.0,35,0.00,,---,0.00,VWS V14.01,2013-03-31 22:54:00,
2013-03-31 18:59:00,47.8,21.5,29.94,SE,138,0.0,0.0,35,0.00,,---,0.00,VWS V14.01,2013-03-31 22:59:00,
2013-03-31 19:04:00,47.7,22.0,29.94,SW,214,0.0,4.5,36,0.00,,---,0.00,VWS V14.01,2013-03-31 23:04:00,
2013-03-31 19:09:00,47.5,21.9,29.94,South,190,0.0,0.0,36,0.00,,---,0.00,VWS V14.01,2013-03-31 23:09:00,
2013-03-31 19:14:00,47.5,21.9,29.91,SW,233,0.0,0.0,36,0.00,,---,0.00,VWS V14.01,2013-03-31 23:14:00,
2013-03-31 19:19:00,47.3,22.4,29.91,South,187,0.0,0.0,37,0.00,,---,0.00,VWS V14.01,2013-03-31 23:19:00,
2013-03-31 19:24:00,47.3,22.4,29.91,NE,50,0.0,0.0,37,0.00,,---,0.00,VWS V14.01,2013-03-31 23:24:00,
2013-03-31 19:29:00,47.3,22.4,29.91,SSE,162,0.0,0.0,37,0.00,,---,0.00,VWS V14.01,2013-03-31 23:29:00,
2013-03-31 19:34:00,47.1,22.2,29.91,SSW,200,0.0,0.0,37,0.00,,---,0.00,VWS V14.01,2013-03-31 23:34:00,
2013-03-31 19:39:00,46.9,22.7,29.91,SE,131,0.0,0.0,38,0.00,,---,0.00,VWS V14.01,2013-03-31 23:39:00,
2013-03-31 19:44:00,46.9,22.7,29.88,SSW,196,0.0,0.0,38,0.00,,---,0.00,VWS V14.01,2013-03-31 23:44:00,
2013-03-31 19:49:00,46.8,22.5,29.88,South,186,0.0,0.0,38,0.00,,---,0.00,VWS V14.01,2013-03-31 23:49:00,
2013-03-31 19:54:00,46.8,23.1,29.88,SSW,195,0.0,0.0,39,0.00,,---,0.00,VWS V14.01,2013-03-31 23:54:00,
2013-03-31 19:59:00,46.8,23.1,29.88,SE,132,0.0,0.0,39,0.00,,---,0.00,VWS V14.01,2013-03-31 23:59:00,
2013-03-31 20:04:00,46.8,23.1,29.88,SW,219,0.0,0.0,39,0.00,,---,0.00,VWS V14.01,2013-04-01 00:04:00,
2013-03-31 20:09:00,46.8,23.1,29.88,South,191,0.0,0.0,39,0.00,,---,0.00,VWS V14.01,2013-04-01 00:09:00,
2013-03-31 20:14:00,46.6,23.6,29.88,SSE,160,2.7,6.9,40,0.00,,---,0.00,VWS V14.01,2013-04-01 00:14:00,
2013-03-31 20:19:00,46.6,23.6,29.88,SE,146,0.0,0.0,40,0.00,,---,0.00,VWS V14.01,2013-04-01 00:19:00,
2013-03-31 20:24:00,46.4,23.4,29.88,South,180,0.0,0.0,40,0.00,,---,0.00,VWS V14.01,2013-04-01 00:24:00,
2013-03-31 20:29:00,46.4,23.4,29.85,South,189,0.0,0.0,40,0.00,,---,0.00,VWS V14.01,2013-04-01 00:29:00,
2013-03-31 20:34:00,46.4,24.0,29.85,WSW,239,3.1,7.8,41,0.00,,---,0.00,VWS V14.01,2013-04-01 00:34:00,
2013-03-31 20:39:00,46.6,24.7,29.85,South,176,9.6,10.1,42,0.00,,---,0.00,VWS V14.01,2013-04-01 00:39:00,
2013-03-31 20:44:00,46.8,24.9,29.85,SE,139,3.6,9.6,42,0.00,,---,0.00,VWS V14.01,2013-04-01 00:44:00,
2013-03-31 20:49:00,46.8,24.9,29.85,SSW,198,2.7,2.7,42,0.00,,---,0.00,VWS V14.01,2013-04-01 00:49:00,
2013-03-31 20:54:00,46.8,25.5,29.85,SSW,195,3.1,3.1,43,0.00,,---,0.00,VWS V14.01,2013-04-01 00:54:00,
2013-03-31 20:59:00,46.6,25.9,29.85,SW,230,0.0,0.0,44,0.00,,---,0.00,VWS V14.01,2013-04-01 00:59:00,
2013-03-31 21:04:00,46.4,26.2,29.85,East,98,0.0,0.0,45,0.00,,---,0.00,VWS V14.01,2013-04-01 01:04:00,
2013-03-31 21:09:00,46.0,27.0,29.85,South,169,5.4,5.4,47,0.00,,---,0.00,VWS V14.01,2013-04-01 01:09:00,
2013-03-31 21:14:00,45.7,26.6,29.82,SW,233,0.0,0.0,47,0.00,,---,0.00,VWS V14.01,2013-04-01 01:14:00,
2013-03-31 21:19:00,45.5,26.5,29.82,South,177,0.0,0.0,47,0.00,,---,0.00,VWS V14.01,2013-04-01 01:19:00,
2013-03-31 21:24:00,45.3,26.3,29.82,SW,224,0.0,0.0,47,0.00,,---,0.00,VWS V14.01,2013-04-01 01:24:00,
2013-03-31 21:29:00,45.3,26.3,29.82,SSW,210,0.0,0.0,47,0.00,,---,0.00,VWS V14.01,2013-04-01 01:29:00,
2013-03-31 21:34:00,45.1,26.1,29.82,South,172,0.0,0.0,47,0.00,,---,0.00,VWS V14.01,2013-04-01 01:34:00,
2013-03-31 21:39:00,45.0,26.0,29.82,SSE,160,0.0,0.0,47,0.00,,---,0.00,VWS V14.01,2013-04-01 01:39:00,
2013-03-31 21:44:00,45.0,26.5,29.79,SSW,194,0.0,0.0,48,0.00,,---,0.00,VWS V14.01,2013-04-01 01:44:00,
2013-03-31 21:49:00,44.8,26.3,29.79,SSE,151,2.7,2.7,48,0.00,,---,0.00,VWS V14.01,2013-04-01 01:49:00,
2013-03-31 21:54:00,44.8,26.8,29.79,SSE,151,3.6,3.6,49,0.00,,---,0.00,VWS V14.01,2013-04-01 01:54:00,
2013-03-31 21:59:00,45.0,27.0,29.79,SSW,203,0.0,0.0,49,0.00,,---,0.00,VWS V14.01,2013-04-01 01:59:00,
2013-03-31 22:04:00,45.1,28.1,29.79,SSW,208,0.0,0.0,51,0.00,,---,0.00,VWS V14.01,2013-04-01 02:04:00,
2013-03-31 22:09:00,45.1,29.0,29.79,SW,214,0.0,0.0,53,0.00,,---,0.00,VWS V14.01,2013-04-01 02:09:00,
2013-03-31 22:14:00,45.1,29.5,29.79,South,169,0.0,0.0,54,0.00,,---,0.00,VWS V14.01,2013-04-01 02:14:00,
2013-03-31 22:19:00,45.1,30.4,29.79,SSE,160,0.0,4.0,56,0.00,,---,0.00,VWS V14.01,2013-04-01 02:19:00,
2013-03-31 22:24:00,45.1,31.3,29.79,SSW,193,0.0,0.0,58,0.00,,---,0.00,VWS V14.01,2013-04-01 02:24:00,
2013-03-31 22:29:00,45.0,31.9,29.76,South,182,0.0,0.0,60,0.00,,---,0.00,VWS V14.01,2013-04-01 02:29:00,
2013-03-31 22:34:00,44.8,33.0,29.76,SSW,197,0.0,0.0,63,0.00,,---,0.00,VWS V14.01,2013-04-01 02:34:00,
2013-03-31 22:39:00,44.8,34.1,29.76,SW,214,0.0,0.0,66,0.04,,---,0.04,VWS V14.01,2013-04-01 02:39:00,
2013-03-31 22:44:00,44.6,34.3,29.76,SSE,147,0.0,0.0,67,0.04,,---,0.04,VWS V14.01,2013-04-01 02:44:00,
2013-03-31 22:49:00,44.6,35.1,29.76,ESE,103,4.0,4.0,69,0.04,,---,0.04,VWS V14.01,2013-04-01 02:49:00,
2013-03-31 22:54:00,44.8,35.6,29.76,ESE,115,0.0,0.0,70,0.04,,---,0.04,VWS V14.01,2013-04-01 02:54:00,
2013-03-31 22:59:00,45.0,36.5,29.73,SSE,152,0.0,0.0,72,0.04,,---,0.04,VWS V14.01,2013-04-01 02:59:00,
2013-03-31 23:04:00,45.0,36.8,29.73,WSW,249,0.0,0.0,73,0.08,,---,0.08,VWS V14.01,2013-04-01 03:04:00,
2013-03-31 23:09:00,45.1,37.4,29.73,SSW,197,0.0,0.0,74,0.08,,---,0.08,VWS V14.01,2013-04-01 03:09:00,
2013-03-31 23:14:00,45.3,37.9,29.70,ESE,115,3.6,6.9,75,0.12,,---,0.12,VWS V14.01,2013-04-01 03:14:00,
2013-03-31 23:19:00,45.5,38.4,29.70,SE,128,0.0,0.0,76,0.12,,---,0.12,VWS V14.01,2013-04-01 03:19:00,
2013-03-31 23:24:00,45.9,39.1,29.70,South,174,0.0,0.0,77,0.12,,---,0.12,VWS V14.01,2013-04-01 03:24:00,
2013-03-31 23:29:00,45.9,39.4,29.70,WSW,250,0.0,3.6,78,0.16,,---,0.16,VWS V14.01,2013-04-01 03:29:00,
2013-03-31 23:35:00,46.0,39.9,29.70,SSW,209,0.0,0.0,79,0.16,,---,0.16,VWS V14.01,2013-04-01 03:35:00,
2013-03-31 23:39:00,46.6,41.1,29.70,SW,236,0.0,5.4,81,0.16,,---,0.16,VWS V14.01,2013-04-01 03:39:00,
2013-03-31 23:44:00,46.9,41.7,29.67,South,178,0.0,0.0,82,0.12,,---,0.16,VWS V14.01,2013-04-01 03:44:00,
2013-03-31 23:49:00,46.9,42.0,29.67,WSW,258,0.0,2.7,83,0.20,,---,0.24,VWS V14.01,2013-04-01 03:49:00,
2013-03-31 23:55:00,46.9,42.0,29.67,SSE,164,0.0,0.0,83,0.20,,---,0.24,VWS V14.01,2013-04-01 03:55:00,